Time,TemperatureF,DewpointF,PressureIn,WindDirection,WindDirectionDegrees,WindSpeedMPH,WindSpeedGustMPH,Humidity,HourlyPrecipIn,Conditions,Clouds,dailyrainin,SolarRadiationWatts/m^2,SoftwareType,DateUTC
2013-05-20 00:01:00,73.9,70.8,30.08,ESE,118,3.0,7.0,90,0.00,,CLR,0.01,0.00,VWS V14.01,2013-05-20 04:01:00,
2013-05-20 00:02:00,73.9,70.8,30.08,ESE,118,3.0,3.0,90,0.00,,CLR,0.00,0.00,VWS V14.01,2013-05-20 04:02:00,
2013-05-20 00:07:00,73.9,70.5,30.08,ESE,111,3.0,5.0,89,0.00,,CLR,0.00,0.00,VWS V14.01,2013-05-20 04:07:00,
2013-05-20 00:12:00,74.0,70.6,30.07,SE,132,2.0,5.0,89,0.00,,CLR,0.00,0.00,VWS V14.01,2013-05-20 04:12:00,
2013-05-20 00:17:00,74.0,70.6,30.08,ESE,111,3.0,5.0,89,0.00,,CLR,0.00,0.00,VWS V14.01,2013-05-20 04:17:00,
2013-05-20 00:22:00,73.9,70.5,30.08,East,98,0.0,5.0,89,0.00,,CLR,0.00,0.00,VWS V14.01,2013-05-20 04:22:00,
2013-05-20 00:27:00,73.8,70.4,30.08,East,97,2.0,5.0,89,0.00,,CLR,0.00,0.00,VWS V14.01,2013-05-20 04:27:00,
2013-05-20 00:32:00,73.7,70.6,30.07,East,84,3.0,3.0,90,0.00,,CLR,0.00,0.00,VWS V14.01,2013-05-20 04:32:00,
2013-05-20 00:37:00,73.6,70.5,30.07,East,92,2.0,3.0,90,0.00,,CLR,0.00,0.00,VWS V14.01,2013-05-20 04:37:00,
2013-05-20 00:42:00,73.7,70.6,30.07,ESE,116,4.0,5.0,90,0.00,,CLR,0.00,0.00,VWS V14.01,2013-05-20 04:42:00,
2013-05-20 00:47:00,73.8,70.7,30.06,SE,125,3.0,5.0,90,0.00,,CLR,0.00,0.00,VWS V14.01,2013-05-20 04:47:00,
2013-05-20 00:52:00,73.8,70.7,30.06,ESE,121,5.0,5.0,90,0.00,,CLR,0.00,0.00,VWS V14.01,2013-05-20 04:52:00,
2013-05-20 00:57:00,73.9,70.8,30.06,ESE,112,3.0,5.0,90,0.00,,CLR,0.00,0.00,VWS V14.01,2013-05-20 04:57:00,
2013-05-20 01:02:00,73.9,70.8,30.06,ESE,112,4.0,4.0,90,0.00,,CLR,0.00,0.00,VWS V14.01,2013-05-20 05:02:00,
2013-05-20 01:07:00,73.9,70.8,30.05,SE,133,5.0,8.0,90,0.00,,CLR,0.00,0.00,VWS V14.01,2013-05-20 05:07:00,
2013-05-20 01:12:00,74.0,70.9,30.05,SE,130,3.0,8.0,90,0.00,,CLR,0.00,0.00,VWS V14.01,2013-05-20 05:12:00,
2013-05-20 01:17:00,74.0,70.9,30.05,ESE,122,5.0,8.0,90,0.00,,CLR,0.00,0.00,VWS V14.01,2013-05-20 05:17:00,
2013-05-20 01:22:00,74.0,70.9,30.05,SE,134,3.0,8.0,90,0.00,,CLR,0.00,0.00,VWS V14.01,2013-05-20 05:22:00,
2013-05-20 01:27:00,74.1,70.7,30.04,SE,130,5.0,8.0,89,0.00,,CLR,0.00,0.00,VWS V14.01,2013-05-20 05:27:00,
2013-05-20 01:32:00,74.2,70.8,30.05,SE,142,5.0,8.0,89,0.00,,CLR,0.00,0.00,VWS V14.01,2013-05-20 05:32:00,
2013-05-20 01:37:00,74.3,70.8,30.04,SE,134,4.0,8.0,89,0.00,,CLR,0.00,0.00,VWS V14.01,2013-05-20 05:37:00,
2013-05-20 01:42:00,74.3,70.5,30.04,SSE,148,6.0,8.0,88,0.00,,CLR,0.00,0.00,VWS V14.01,2013-05-20 05:42:00,
2013-05-20 01:47:00,74.3,70.5,30.04,SE,134,4.0,8.0,88,0.00,,CLR,0.00,0.00,VWS V14.01,2013-05-20 05:47:00,
2013-05-20 01:52:00,74.3,70.5,30.04,SSE,161,2.0,8.0,88,0.00,,CLR,0.00,0.00,VWS V14.01,2013-05-20 05:52:00,
2013-05-20 01:57:00,74.3,70.5,30.04,SE,143,3.0,8.0,88,0.00,,CLR,0.00,0.00,VWS V14.01,2013-05-20 05:57:00,
2013-05-20 02:02:00,74.4,70.6,30.03,SE,136,6.0,7.0,88,0.00,,CLR,0.00,0.00,VWS V14.01,2013-05-20 06:02:00,
2013-05-20 02:07:00,74.5,70.4,30.03,SSE,167,4.0,7.0,87,0.00,,CLR,0.00,0.00,VWS V14.01,2013-05-20 06:07:00,
2013-05-20 02:12:00,74.5,70.4,30.03,SE,124,5.0,7.0,87,0.00,,CLR,0.00,0.00,VWS V14.01,2013-05-20 06:12:00,
2013-05-20 02:17:00,74.4,70.3,30.03,SE,144,5.0,8.0,87,0.00,,CLR,0.00,0.00,VWS V14.01,2013-05-20 06:17:00,
2013-05-20 02:22:00,74.4,70.3,30.03,SE,137,3.0,8.0,87,0.00,,CLR,0.00,0.00,VWS V14.01,2013-05-20 06:22:00,
2013-05-20 02:27:00,74.3,70.5,30.02,SSE,153,3.0,8.0,88,0.00,,CLR,0.00,0.00,VWS V14.01,2013-05-20 06:27:00,
2013-05-20 02:33:00,74.2,70.4,30.02,SE,146,5.0,8.0,88,0.00,,CLR,0.00,0.00,VWS V14.01,2013-05-20 06:33:00,
2013-05-20 02:38:00,74.1,70.3,30.02,SE,144,4.0,8.0,88,0.00,,CLR,0.00,0.00,VWS V14.01,2013-05-20 06:38:00,
2013-05-20 02:43:00,74.0,70.2,30.02,SE,138,7.0,8.0,88,0.00,,CLR,0.00,0.00,VWS V14.01,2013-05-20 06:43:00,
2013-05-20 02:48:00,74.0,70.2,30.02,SSE,154,5.0,8.0,88,0.00,,CLR,0.00,0.00,VWS V14.01,2013-05-20 06:48:00,
2013-05-20 02:53:00,74.0,70.2,30.01,SE,125,6.0,9.0,88,0.00,,CLR,0.00,0.00,VWS V14.01,2013-05-20 06:53:00,
2013-05-20 02:58:00,73.9,70.1,30.01,SE,134,6.0,9.0,88,0.00,,CLR,0.00,0.00,VWS V14.01,2013-05-20 06:58:00,
2013-05-20 03:03:00,73.9,70.1,30.00,ESE,116,7.0,10.0,88,0.00,,CLR,0.00,0.00,VWS V14.01,2013-05-20 07:03:00,
2013-05-20 03:08:00,73.9,70.1,30.00,SE,145,9.0,10.0,88,0.00,,CLR,0.00,0.00,VWS V14.01,2013-05-20 07:08:00,
2013-05-20 03:13:00,73.8,70.0,30.00,ESE,109,8.0,10.0,88,0.00,,CLR,0.00,0.00,VWS V14.01,2013-05-20 07:13:00,
2013-05-20 03:18:00,73.8,70.0,30.00,ESE,122,4.0,10.0,88,0.00,,CLR,0.00,0.00,VWS V14.01,2013-05-20 07:18:00,
2013-05-20 03:23:00,73.7,69.9,30.01,ESE,121,5.0,10.0,88,0.00,,CLR,0.00,0.00,VWS V14.01,2013-05-20 07:23:00,
2013-05-20 03:28:00,73.6,69.8,30.01,SE,128,4.0,10.0,88,0.00,,CLR,0.00,0.00,VWS V14.01,2013-05-20 07:28:00,
2013-05-20 03:33:00,73.6,70.2,30.01,SE,146,3.0,4.0,89,0.00,,CLR,0.00,0.00,VWS V14.01,2013-05-20 07:33:00,
2013-05-20 03:38:00,73.5,70.1,30.01,SE,138,3.0,5.0,89,0.00,,CLR,0.00,0.00,VWS V14.01,2013-05-20 07:38:00,
2013-05-20 03:43:00,73.5,70.1,30.01,ESE,119,2.0,5.0,89,0.00,,CLR,0.00,0.00,VWS V14.01,2013-05-20 07:43:00,
2013-05-20 03:48:00,73.3,69.9,30.01,ESE,122,2.0,5.0,89,0.00,,CLR,0.00,0.00,VWS V14.01,2013-05-20 07:48:00,
2013-05-20 03:53:00,73.2,69.8,30.01,SE,146,2.0,5.0,89,0.00,,CLR,0.00,0.00,VWS V14.01,2013-05-20 07:53:00,
2013-05-20 03:58:00,73.2,69.8,30.01,SSE,153,4.0,5.0,89,0.00,,CLR,0.00,0.00,VWS V14.01,2013-05-20 07:58:00,
2013-05-20 04:03:00,73.2,69.8,30.01,SSE,159,1.0,2.0,89,0.00,,CLR,0.00,0.00,VWS V14.01,2013-05-20 08:03:00,
2013-05-20 04:08:00,73.2,69.8,30.01,ESE,113,1.0,3.0,89,0.00,,CLR,0.00,0.00,VWS V14.01,2013-05-20 08:08:00,
2013-05-20 04:13:00,73.1,69.7,30.01,SSE,156,1.0,3.0,89,0.00,,CLR,0.00,0.00,VWS V14.01,2013-05-20 08:13:00,
2013-05-20 04:18:00,73.1,69.7,30.01,SSE,155,2.0,4.0,89,0.00,,CLR,0.00,0.00,VWS V14.01,2013-05-20 08:18:00,
2013-05-20 04:23:00,73.3,69.9,30.01,SE,133,3.0,4.0,89,0.00,,CLR,0.00,0.00,VWS V14.01,2013-05-20 08:23:00,
2013-05-20 04:28:00,73.2,69.8,30.01,SE,141,2.0,5.0,89,0.00,,CLR,0.00,0.00,VWS V14.01,2013-05-20 08:28:00,
2013-05-20 04:33:00,73.1,69.7,30.01,SSE,150,3.0,5.0,89,0.00,,CLR,0.00,0.00,VWS V14.01,2013-05-20 08:33:00,
2013-05-20 04:38:00,73.0,69.9,30.01,SSE,160,3.0,5.0,90,0.00,,CLR,0.00,0.00,VWS V14.01,2013-05-20 08:38:00,
2013-05-20 04:43:00,73.0,69.9,30.01,SE,141,4.0,6.0,90,0.00,,CLR,0.00,0.00,VWS V14.01,2013-05-20 08:43:00,
2013-05-20 04:48:00,73.0,69.9,30.00,ESE,114,3.0,7.0,90,0.00,,CLR,0.00,0.00,VWS V14.01,2013-05-20 08:48:00,
2013-05-20 04:53:00,73.1,70.0,30.01,SE,142,4.0,8.0,90,0.00,,CLR,0.00,0.00,VWS V14.01,2013-05-20 08:53:00,
2013-05-20 04:58:00,73.0,69.9,30.01,ESE,118,5.0,8.0,90,0.00,,CLR,0.00,0.00,VWS V14.01,2013-05-20 08:58:00,
2013-05-20 05:03:00,73.0,69.9,30.01,South,177,2.0,4.0,90,0.00,,CLR,0.00,0.00,VWS V14.01,2013-05-20 09:03:00,
2013-05-20 05:09:00,72.9,69.8,30.01,SSE,163,3.0,6.0,90,0.00,,CLR,0.00,0.00,VWS V14.01,2013-05-20 09:09:00,
2013-05-20 05:14:00,73.0,69.9,30.01,SE,138,3.0,6.0,90,0.00,,CLR,0.00,0.00,VWS V14.01,2013-05-20 09:14:00,
2013-05-20 05:19:00,73.0,69.9,30.01,SE,142,3.0,6.0,90,0.00,,CLR,0.00,0.00,VWS V14.01,2013-05-20 09:19:00,
2013-05-20 05:24:00,73.1,70.0,30.01,SSE,148,6.0,6.0,90,0.00,,CLR,0.00,0.00,VWS V14.01,2013-05-20 09:24:00,
2013-05-20 05:29:00,73.1,70.0,30.01,SE,134,2.0,7.0,90,0.00,,CLR,0.00,0.00,VWS V14.01,2013-05-20 09:29:00,
2013-05-20 05:34:00,73.1,70.0,30.01,SE,143,5.0,5.0,90,0.00,,CLR,0.00,0.00,VWS V14.01,2013-05-20 09:34:00,
2013-05-20 05:39:00,73.1,70.0,30.01,SSE,148,3.0,6.0,90,0.00,,SCT038,0.00,0.00,VWS V14.01,2013-05-20 09:39:00,
2013-05-20 05:44:00,73.0,69.9,30.02,SE,136,2.0,6.0,90,0.00,,SCT038,0.00,0.00,VWS V14.01,2013-05-20 09:44:00,
2013-05-20 05:49:00,72.9,69.8,30.02,SSE,149,3.0,6.0,90,0.00,,SCT038,0.00,0.00,VWS V14.01,2013-05-20 09:49:00,
2013-05-20 05:54:00,73.0,69.9,30.02,ESE,106,3.0,6.0,90,0.00,,SCT038,0.00,0.00,VWS V14.01,2013-05-20 09:54:00,
2013-05-20 05:59:00,73.0,69.9,30.02,SE,138,3.0,6.0,90,0.00,,SCT038,0.00,0.00,VWS V14.01,2013-05-20 09:59:00,
2013-05-20 06:04:00,72.9,69.8,30.02,SE,132,3.0,4.0,90,0.00,,SCT038,0.00,0.00,VWS V14.01,2013-05-20 10:04:00,
2013-05-20 06:09:00,72.9,69.8,30.02,SE,138,2.0,4.0,90,0.00,,SCT038,0.00,0.00,VWS V14.01,2013-05-20 10:09:00,
2013-05-20 06:14:00,72.8,69.7,30.02,SE,141,4.0,6.0,90,0.00,,SCT038,0.00,0.00,VWS V14.01,2013-05-20 10:14:00,
2013-05-20 06:19:00,72.8,69.7,30.02,SE,135,3.0,6.0,90,0.00,,CLR,0.00,0.00,VWS V14.01,2013-05-20 10:19:00,
2013-05-20 06:24:00,72.9,69.8,30.03,SE,127,3.0,6.0,90,0.00,,CLR,0.00,0.00,VWS V14.01,2013-05-20 10:24:00,
2013-05-20 06:29:00,72.8,69.7,30.03,ESE,122,4.0,6.0,90,0.00,,CLR,0.00,0.00,VWS V14.01,2013-05-20 10:29:00,
2013-05-20 06:34:00,72.8,69.7,30.03,SE,126,4.0,5.0,90,0.00,,CLR,0.00,0.00,VWS V14.01,2013-05-20 10:34:00,
2013-05-20 06:39:00,72.8,69.7,30.03,SSE,158,2.0,5.0,90,0.00,,CLR,0.00,0.00,VWS V14.01,2013-05-20 10:39:00,
2013-05-20 06:44:00,72.7,69.9,30.04,SSE,167,3.0,5.0,91,0.00,,CLR,0.00,7.00,VWS V14.01,2013-05-20 10:44:00,
2013-05-20 06:49:00,72.7,69.9,30.04,SSE,165,3.0,5.0,91,0.00,,CLR,0.00,12.00,VWS V14.01,2013-05-20 10:49:00,
2013-05-20 06:54:00,72.8,70.0,30.04,SE,144,3.0,5.0,91,0.00,,CLR,0.00,16.00,VWS V14.01,2013-05-20 10:54:00,
2013-05-20 06:59:00,72.9,70.1,30.05,SE,144,4.0,5.0,91,0.00,,FEW080,0.00,19.00,VWS V14.01,2013-05-20 10:59:00,
2013-05-20 07:04:00,73.0,70.2,30.04,SE,129,2.0,5.0,91,0.00,,FEW080,0.00,16.00,VWS V14.01,2013-05-20 11:04:00,
2013-05-20 07:09:00,73.1,70.3,30.04,SSE,154,3.0,5.0,91,0.00,,FEW080,0.00,16.00,VWS V14.01,2013-05-20 11:09:00,
2013-05-20 07:14:00,73.2,70.1,30.05,SE,142,2.0,5.0,90,0.00,,FEW080,0.00,18.00,VWS V14.01,2013-05-20 11:14:00,
2013-05-20 07:19:00,73.2,70.1,30.05,SE,131,3.0,5.0,90,0.00,,FEW080,0.00,25.00,VWS V14.01,2013-05-20 11:19:00,
2013-05-20 07:24:00,73.4,70.3,30.05,SE,142,6.0,7.0,90,0.00,,FEW080,0.00,42.00,VWS V14.01,2013-05-20 11:24:00,
2013-05-20 07:30:00,73.5,70.4,30.04,SE,132,4.0,7.0,90,0.00,,FEW080,0.00,63.00,VWS V14.01,2013-05-20 11:30:00,
2013-05-20 07:35:00,73.5,70.4,30.05,SE,124,4.0,7.0,90,0.00,,FEW080,0.00,72.00,VWS V14.01,2013-05-20 11:35:00,
2013-05-20 07:40:00,73.7,70.6,30.05,SE,130,4.0,7.0,90,0.00,,FEW080,0.00,74.00,VWS V14.01,2013-05-20 11:40:00,
2013-05-20 07:45:00,73.7,70.6,30.05,South,175,1.0,7.0,90,0.00,,FEW080,0.00,70.00,VWS V14.01,2013-05-20 11:45:00,
2013-05-20 07:50:00,73.8,70.7,30.05,SSE,148,4.0,7.0,90,0.00,,FEW080,0.00,77.00,VWS V14.01,2013-05-20 11:50:00,
2013-05-20 07:55:00,73.9,70.5,30.05,SE,139,2.0,7.0,89,0.00,,FEW080,0.00,91.00,VWS V14.01,2013-05-20 11:55:00,
2013-05-20 08:00:00,74.1,70.7,30.05,SE,139,4.0,7.0,89,0.00,,FEW028,0.00,121.00,VWS V14.01,2013-05-20 12:00:00,
2013-05-20 08:05:00,74.4,70.9,30.05,SE,137,3.0,7.0,89,0.00,,FEW028,0.00,125.00,VWS V14.01,2013-05-20 12:05:00,
2013-05-20 08:10:00,74.6,71.2,30.05,SE,128,7.0,7.0,89,0.00,,FEW028,0.00,183.00,VWS V14.01,2013-05-20 12:10:00,
2013-05-20 08:15:00,74.9,71.1,30.06,SSE,152,3.0,7.0,88,0.00,,FEW028,0.00,207.00,VWS V14.01,2013-05-20 12:15:00,
2013-05-20 08:20:00,75.3,71.5,30.06,SSE,153,4.0,8.0,88,0.00,,FEW028,0.00,207.00,VWS V14.01,2013-05-20 12:20:00,
2013-05-20 08:25:00,75.4,71.3,30.06,SE,135,5.0,8.0,87,0.00,,FEW028,0.00,162.00,VWS V14.01,2013-05-20 12:25:00,
2013-05-20 08:30:00,75.4,71.3,30.06,SE,132,5.0,8.0,87,0.00,,FEW028,0.00,156.00,VWS V14.01,2013-05-20 12:30:00,
2013-05-20 08:35:00,75.5,71.0,30.06,ESE,121,5.0,6.0,86,0.00,,FEW028,0.00,183.00,VWS V14.01,2013-05-20 12:35:00,
2013-05-20 08:40:00,75.7,71.2,30.06,SE,134,4.0,7.0,86,0.00,,FEW028,0.00,225.00,VWS V14.01,2013-05-20 12:40:00,
2013-05-20 08:45:00,76.2,71.4,30.06,SE,130,3.0,9.0,85,0.00,,FEW028,0.00,195.00,VWS V14.01,2013-05-20 12:45:00,
2013-05-20 08:50:00,76.3,71.5,30.06,ESE,113,5.0,9.0,85,0.00,,FEW028,0.00,257.00,VWS V14.01,2013-05-20 12:50:00,
2013-05-20 08:55:00,76.8,71.6,30.06,ESE,123,7.0,9.0,84,0.00,,FEW028,0.00,255.00,VWS V14.01,2013-05-20 12:55:00,
2013-05-20 09:00:00,76.7,71.2,30.06,SE,138,7.0,11.0,83,0.00,,FEW028,0.00,274.00,VWS V14.01,2013-05-20 13:00:00,
2013-05-20 09:05:00,77.1,71.9,30.06,SSE,157,4.0,10.0,84,0.00,,CLR,0.00,311.00,VWS V14.01,2013-05-20 13:05:00,
2013-05-20 09:10:00,77.4,71.8,30.07,SE,146,6.0,10.0,83,0.00,,CLR,0.00,362.00,VWS V14.01,2013-05-20 13:10:00,
2013-05-20 09:15:00,78.3,72.7,30.07,SSE,155,4.0,10.0,83,0.00,,CLR,0.00,438.00,VWS V14.01,2013-05-20 13:15:00,
2013-05-20 09:20:00,78.4,72.4,30.07,SE,125,4.0,10.0,82,0.00,,CLR,0.00,334.00,VWS V14.01,2013-05-20 13:20:00,
2013-05-20 09:25:00,78.7,72.0,30.07,SE,142,6.0,10.0,80,0.00,,CLR,0.00,448.00,VWS V14.01,2013-05-20 13:25:00,
2013-05-20 09:30:00,79.0,71.9,30.07,South,174,4.0,10.0,79,0.00,,CLR,0.00,385.00,VWS V14.01,2013-05-20 13:30:00,
2013-05-20 09:35:00,78.5,71.4,30.07,SSE,158,6.0,9.0,79,0.00,,CLR,0.00,350.00,VWS V14.01,2013-05-20 13:35:00,
2013-05-20 09:40:00,78.7,71.6,30.07,SSE,147,8.0,12.0,79,0.00,,CLR,0.00,311.00,VWS V14.01,2013-05-20 13:40:00,
2013-05-20 09:45:00,78.6,71.6,30.07,SW,215,6.0,12.0,79,0.00,,CLR,0.00,241.00,VWS V14.01,2013-05-20 13:45:00,
2013-05-20 09:50:00,78.2,70.8,30.08,SSE,167,4.0,12.0,78,0.00,,CLR,0.00,271.00,VWS V14.01,2013-05-20 13:50:00,
2013-05-20 09:55:00,78.4,71.0,30.08,SW,215,5.0,12.0,78,0.00,,CLR,0.00,302.00,VWS V14.01,2013-05-20 13:55:00,
2013-05-20 10:00:00,78.5,71.4,30.08,SW,215,4.0,12.0,79,0.00,,CLR,0.00,406.00,VWS V14.01,2013-05-20 14:00:00,
2013-05-20 10:05:00,78.6,71.2,30.08,SSW,192,3.0,7.0,78,0.00,,CLR,0.00,346.00,VWS V14.01,2013-05-20 14:05:00,
2013-05-20 10:11:00,79.1,72.0,30.08,South,176,5.0,8.0,79,0.00,,CLR,0.00,527.00,VWS V14.01,2013-05-20 14:11:00,
2013-05-20 10:16:00,78.8,70.6,30.08,South,187,3.0,13.0,76,0.00,,CLR,0.00,352.00,VWS V14.01,2013-05-20 14:16:00,
2013-05-20 10:21:00,79.3,71.1,30.07,SSE,160,6.0,13.0,76,0.00,,CLR,0.00,454.00,VWS V14.01,2013-05-20 14:21:00,
2013-05-20 10:26:00,79.9,71.7,30.07,ESE,115,4.0,13.0,76,0.00,,CLR,0.00,687.00,VWS V14.01,2013-05-20 14:26:00,
2013-05-20 10:31:00,80.9,72.6,30.07,SSE,157,3.0,13.0,76,0.00,,CLR,0.00,708.00,VWS V14.01,2013-05-20 14:31:00,
2013-05-20 10:36:00,80.5,71.8,30.07,SW,220,5.0,7.0,75,0.00,,CLR,0.00,707.00,VWS V14.01,2013-05-20 14:36:00,
2013-05-20 10:41:00,80.7,72.0,30.08,SSW,211,1.0,7.0,75,0.00,,CLR,0.00,731.00,VWS V14.01,2013-05-20 14:41:00,
2013-05-20 10:46:00,80.6,71.2,30.07,SSW,211,7.0,7.0,73,0.00,,CLR,0.00,700.00,VWS V14.01,2013-05-20 14:46:00,
2013-05-20 10:51:00,81.1,69.6,30.07,SE,126,5.0,8.0,68,0.00,,CLR,0.00,722.00,VWS V14.01,2013-05-20 14:51:00,
2013-05-20 10:56:00,82.0,69.5,30.07,ESE,111,3.0,8.0,66,0.00,,CLR,0.00,686.00,VWS V14.01,2013-05-20 14:56:00,
2013-05-20 11:01:00,81.9,70.7,30.07,East,99,2.0,2.0,69,0.00,,CLR,0.00,763.00,VWS V14.01,2013-05-20 15:01:00,
2013-05-20 11:06:00,82.5,72.2,30.07,East,92,2.0,8.0,71,0.00,,CLR,0.00,761.00,VWS V14.01,2013-05-20 15:06:00,
2013-05-20 11:11:00,82.0,71.3,30.07,West,259,3.0,8.0,70,0.00,,CLR,0.00,788.00,VWS V14.01,2013-05-20 15:11:00,
2013-05-20 11:16:00,82.6,71.4,30.07,SE,138,5.0,8.0,69,0.00,,CLR,0.00,828.00,VWS V14.01,2013-05-20 15:16:00,
2013-05-20 11:21:00,83.8,72.6,30.07,SE,138,4.0,9.0,69,0.00,,CLR,0.00,902.00,VWS V14.01,2013-05-20 15:21:00,
2013-05-20 11:26:00,83.5,68.7,30.07,SW,219,1.0,9.0,61,0.00,,CLR,0.00,768.00,VWS V14.01,2013-05-20 15:26:00,
2013-05-20 11:31:00,83.0,69.1,30.07,SW,234,7.0,7.0,63,0.00,,CLR,0.00,728.00,VWS V14.01,2013-05-20 15:31:00,
2013-05-20 11:36:00,83.0,68.7,30.06,SSE,150,3.0,8.0,62,0.00,,CLR,0.00,854.00,VWS V14.01,2013-05-20 15:36:00,
2013-05-20 11:41:00,84.1,70.6,30.06,ESE,113,7.0,8.0,64,0.00,,CLR,0.00,826.00,VWS V14.01,2013-05-20 15:41:00,
2013-05-20 11:46:00,83.5,69.1,30.06,SSW,202,1.0,8.0,62,0.00,,CLR,0.00,856.00,VWS V14.01,2013-05-20 15:46:00,
2013-05-20 11:51:00,83.7,69.8,30.06,SW,225,5.0,8.0,63,0.00,,CLR,0.00,833.00,VWS V14.01,2013-05-20 15:51:00,
2013-05-20 11:56:00,83.7,69.8,30.05,SSW,199,2.0,8.0,63,0.00,,CLR,0.00,831.00,VWS V14.01,2013-05-20 15:56:00,
2013-05-20 12:01:00,84.5,71.9,30.05,SE,138,5.0,9.0,66,0.00,,CLR,0.00,881.00,VWS V14.01,2013-05-20 16:01:00,
2013-05-20 12:06:00,84.5,71.4,30.05,SE,135,6.0,9.0,65,0.00,,CLR,0.00,874.00,VWS V14.01,2013-05-20 16:06:00,
2013-05-20 12:11:00,84.8,72.6,30.05,East,91,2.0,9.0,67,0.00,,CLR,0.00,877.00,VWS V14.01,2013-05-20 16:11:00,
2013-05-20 12:16:00,84.6,70.2,30.05,SSW,212,1.0,9.0,62,0.00,,CLR,0.00,881.00,VWS V14.01,2013-05-20 16:16:00,
2013-05-20 12:21:00,85.0,71.5,30.05,SSE,152,3.0,9.0,64,0.00,,CLR,0.00,891.00,VWS V14.01,2013-05-20 16:21:00,
2013-05-20 12:26:00,85.6,71.6,30.05,SE,138,6.0,9.0,63,0.00,,CLR,0.00,919.00,VWS V14.01,2013-05-20 16:26:00,
2013-05-20 12:31:00,86.5,72.4,30.05,SSE,155,6.0,9.0,63,0.00,,CLR,0.00,998.00,VWS V14.01,2013-05-20 16:31:00,
2013-05-20 12:36:00,85.9,70.4,30.05,SSE,161,5.0,9.0,60,0.00,,CLR,0.00,1055.00,VWS V14.01,2013-05-20 16:36:00,
2013-05-20 12:41:00,85.7,70.2,30.05,SE,141,3.0,9.0,60,0.00,,CLR,0.00,462.00,VWS V14.01,2013-05-20 16:41:00,
2013-05-20 12:46:00,85.4,69.9,30.05,NNE,15,1.0,9.0,60,0.00,,CLR,0.00,661.00,VWS V14.01,2013-05-20 16:46:00,
2013-05-20 12:51:00,86.1,71.1,30.04,South,172,3.0,9.0,61,0.00,,CLR,0.00,1018.00,VWS V14.01,2013-05-20 16:51:00,
2013-05-20 12:56:00,85.7,69.7,30.04,SSW,211,6.0,9.0,59,0.00,,CLR,0.00,926.00,VWS V14.01,2013-05-20 16:56:00,
2013-05-20 13:02:00,86.0,71.0,30.04,SSW,196,2.0,3.0,61,0.00,,SCT050,0.00,819.00,VWS V14.01,2013-05-20 17:02:00,
2013-05-20 13:07:00,86.4,71.4,30.04,ESE,105,4.0,7.0,61,0.00,,SCT050,0.00,1049.00,VWS V14.01,2013-05-20 17:07:00,
2013-05-20 13:12:00,86.6,71.6,30.03,SE,140,1.0,7.0,61,0.00,,SCT050,0.00,1028.00,VWS V14.01,2013-05-20 17:12:00,
2013-05-20 13:17:00,86.8,72.7,30.03,WNW,296,0.0,7.0,63,0.00,,SCT050,0.00,1044.00,VWS V14.01,2013-05-20 17:17:00,
2013-05-20 13:22:00,86.3,70.3,30.03,ESE,109,0.0,7.0,59,0.00,,SCT050,0.00,322.00,VWS V14.01,2013-05-20 17:22:00,
2013-05-20 13:27:00,86.2,71.2,30.03,SE,125,6.0,7.0,61,0.00,,SCT050,0.00,367.00,VWS V14.01,2013-05-20 17:27:00,
2013-05-20 13:32:00,86.7,70.7,30.02,ENE,68,2.0,3.0,59,0.00,,SCT050,0.00,318.00,VWS V14.01,2013-05-20 17:32:00,
2013-05-20 13:37:00,85.9,71.4,30.02,SE,124,5.0,7.0,62,0.00,,SCT050,0.00,327.00,VWS V14.01,2013-05-20 17:37:00,
2013-05-20 13:42:00,86.2,71.2,30.02,North,351,3.0,7.0,61,0.00,,SCT050,0.00,1041.00,VWS V14.01,2013-05-20 17:42:00,
2013-05-20 13:47:00,87.5,72.4,30.02,SE,134,7.0,9.0,61,0.00,,SCT050,0.00,1058.00,VWS V14.01,2013-05-20 17:47:00,
2013-05-20 13:52:00,86.9,71.3,30.02,ENE,77,4.0,9.0,60,0.00,,SCT050,0.00,369.00,VWS V14.01,2013-05-20 17:52:00,
2013-05-20 13:57:00,86.5,71.5,30.02,SE,142,7.0,10.0,61,0.00,,SCT050,0.00,341.00,VWS V14.01,2013-05-20 17:57:00,
2013-05-20 14:02:00,86.2,70.7,30.02,SE,138,0.0,2.0,60,0.00,,BKN055,0.00,346.00,VWS V14.01,2013-05-20 18:02:00,
2013-05-20 14:07:00,86.2,74.0,30.01,SE,141,0.0,9.0,67,0.00,,BKN055,0.00,385.00,VWS V14.01,2013-05-20 18:07:00,
2013-05-20 14:12:00,85.8,70.8,30.01,East,97,7.0,10.0,61,0.00,,BKN055,0.00,264.00,VWS V14.01,2013-05-20 18:12:00,
2013-05-20 14:17:00,85.6,70.1,30.01,NNE,27,4.0,10.0,60,0.00,,BKN055,0.00,274.00,VWS V14.01,2013-05-20 18:17:00,
2013-05-20 14:22:00,86.3,70.3,30.01,East,90,2.0,10.0,59,0.00,,BKN055,0.00,473.00,VWS V14.01,2013-05-20 18:22:00,
2013-05-20 14:27:00,85.8,70.8,30.00,East,86,0.0,10.0,61,0.00,,BKN055,0.00,248.00,VWS V14.01,2013-05-20 18:27:00,
2013-05-20 14:32:00,85.6,70.1,30.00,East,80,6.0,7.0,60,0.00,,BKN055,0.00,207.00,VWS V14.01,2013-05-20 18:32:00,
2013-05-20 14:37:00,85.6,70.6,30.00,SE,126,3.0,8.0,61,0.00,,BKN055,0.00,179.00,VWS V14.01,2013-05-20 18:37:00,
2013-05-20 14:42:00,85.5,70.0,30.00,ESE,102,9.0,10.0,60,0.00,,BKN055,0.00,153.00,VWS V14.01,2013-05-20 18:42:00,
2013-05-20 14:47:00,85.5,70.0,30.00,SE,136,3.0,10.0,60,0.00,,BKN055,0.00,128.00,VWS V14.01,2013-05-20 18:47:00,
2013-05-20 14:52:00,85.5,70.0,30.00,East,87,2.0,10.0,60,0.00,,BKN055,0.00,109.00,VWS V14.01,2013-05-20 18:52:00,
2013-05-20 14:57:00,85.4,69.9,30.00,ENE,62,3.0,10.0,60,0.00,,BKN055,0.00,93.00,VWS V14.01,2013-05-20 18:57:00,
2013-05-20 15:02:00,85.2,69.8,30.00,East,91,2.0,3.0,60,0.00,,BKN050,0.00,79.00,VWS V14.01,2013-05-20 19:02:00,
2013-05-20 15:07:00,84.9,69.5,29.99,East,91,0.0,3.0,60,0.00,,BKN050,0.00,74.00,VWS V14.01,2013-05-20 19:07:00,
2013-05-20 15:12:00,84.8,69.9,29.99,SE,125,5.0,5.0,61,0.00,,BKN050,0.00,72.00,VWS V14.01,2013-05-20 19:12:00,
2013-05-20 15:17:00,84.8,69.9,29.99,SE,144,0.0,5.0,61,0.00,,OVC040,0.00,70.00,VWS V14.01,2013-05-20 19:17:00,
2013-05-20 15:22:00,84.9,69.0,30.00,SE,128,0.0,5.0,59,0.00,,OVC040,0.00,70.00,VWS V14.01,2013-05-20 19:22:00,
2013-05-20 15:27:00,85.2,69.8,30.01,NNE,30,2.0,5.0,60,0.00,,OVC040,0.00,35.00,VWS V14.01,2013-05-20 19:27:00,
2013-05-20 15:32:00,85.2,69.8,30.01,SW,232,5.0,5.0,60,0.00,,OVC040,0.00,26.00,VWS V14.01,2013-05-20 19:32:00,
2013-05-20 15:37:00,83.2,71.1,30.01,West,272,3.0,9.0,67,0.00,,OVC040,0.00,21.00,VWS V14.01,2013-05-20 19:37:00,
2013-05-20 15:42:00,81.8,67.5,30.02,NNE,24,10.0,18.0,62,0.00,,OVC040,0.00,16.00,VWS V14.01,2013-05-20 19:42:00,
2013-05-20 15:48:00,79.2,63.7,30.02,NNE,14,3.0,18.0,59,0.00,,OVC040,0.00,23.00,VWS V14.01,2013-05-20 19:48:00,
2013-05-20 15:53:00,77.8,65.1,30.01,NE,52,5.0,18.0,65,0.01,,OVC040,0.01,44.00,VWS V14.01,2013-05-20 19:53:00,
2013-05-20 15:58:00,75.6,64.7,30.01,NE,44,5.0,18.0,69,0.06,,OVC040,0.06,76.00,VWS V14.01,2013-05-20 19:58:00,
2013-05-20 16:03:00,73.5,64.3,30.01,NNE,20,8.0,13.0,73,0.10,,OVC027,0.10,114.00,VWS V14.01,2013-05-20 20:03:00,
2013-05-20 16:08:00,73.1,64.3,30.02,NNE,15,5.0,13.0,74,0.11,,OVC027,0.11,118.00,VWS V14.01,2013-05-20 20:08:00,
2013-05-20 16:13:00,72.4,65.2,30.02,North,351,2.0,13.0,78,0.12,,OVC027,0.12,132.00,VWS V14.01,2013-05-20 20:13:00,
2013-05-20 16:18:00,72.4,65.9,30.02,NW,322,6.0,13.0,80,0.12,,OVC027,0.12,146.00,VWS V14.01,2013-05-20 20:18:00,
2013-05-20 16:23:00,72.5,66.7,30.02,NNW,337,9.0,13.0,82,0.12,,OVC027,0.12,113.00,VWS V14.01,2013-05-20 20:23:00,
2013-05-20 16:28:00,72.4,66.6,30.02,North,5,5.0,13.0,82,0.12,,OVC027,0.12,95.00,VWS V14.01,2013-05-20 20:28:00,
2013-05-20 16:33:00,72.3,66.8,30.02,North,355,5.0,7.0,83,0.12,,OVC027,0.12,93.00,VWS V14.01,2013-05-20 20:33:00,
2013-05-20 16:38:00,72.1,66.7,30.01,NNE,24,3.0,9.0,83,0.12,,OVC027,0.12,88.00,VWS V14.01,2013-05-20 20:38:00,
2013-05-20 16:43:00,71.8,66.7,30.01,NNW,330,5.0,9.0,84,0.13,,BKN025,0.13,77.00,VWS V14.01,2013-05-20 20:43:00,
2013-05-20 16:48:00,71.2,66.5,30.00,North,5,3.0,9.0,85,0.14,,BKN025,0.14,90.00,VWS V14.01,2013-05-20 20:48:00,
2013-05-20 16:53:00,70.9,66.5,29.99,NW,311,4.0,9.0,86,0.14,,BKN025,0.14,111.00,VWS V14.01,2013-05-20 20:53:00,
2013-05-20 16:58:00,70.7,66.7,29.99,NNE,12,2.0,9.0,87,0.14,,BKN025,0.14,151.00,VWS V14.01,2013-05-20 20:58:00,
2013-05-20 17:03:00,70.8,67.1,29.99,East,96,2.0,3.0,88,0.05,,-RA,0.14,206.00,VWS V14.01,2013-05-20 21:03:00,
2013-05-20 17:08:00,71.1,67.4,30.00,ESE,107,2.0,3.0,88,0.05,,-RA,0.14,237.00,VWS V14.01,2013-05-20 21:08:00,
2013-05-20 17:13:00,71.4,67.3,30.00,ENE,66,3.0,4.0,87,0.05,,-RA,0.14,260.00,VWS V14.01,2013-05-20 21:13:00,
2013-05-20 17:18:00,71.5,67.4,30.00,NNE,18,5.0,6.0,87,0.05,,-RA,0.14,292.00,VWS V14.01,2013-05-20 21:18:00,
2013-05-20 17:23:00,71.9,67.5,30.00,East,89,5.0,6.0,86,0.05,,-RA,0.14,406.00,VWS V14.01,2013-05-20 21:23:00,
2013-05-20 17:28:00,72.1,67.7,30.00,East,86,1.0,6.0,86,0.05,,-RA,0.14,489.00,VWS V14.01,2013-05-20 21:28:00,
2013-05-20 17:33:00,73.3,69.5,30.01,East,86,9.0,10.0,88,0.02,,-RA,0.14,577.00,VWS V14.01,2013-05-20 21:33:00,
2013-05-20 17:38:00,73.6,68.8,30.02,NNE,21,7.0,12.0,85,0.02,,-RA,0.14,575.00,VWS V14.01,2013-05-20 21:38:00,
2013-05-20 17:43:00,73.7,68.2,30.02,ENE,67,5.0,14.0,83,0.02,,-RA,0.14,541.00,VWS V14.01,2013-05-20 21:43:00,
2013-05-20 17:48:00,73.9,68.1,30.03,NNE,17,16.0,16.0,82,0.02,,-RA,0.14,483.00,VWS V14.01,2013-05-20 21:48:00,
2013-05-20 17:53:00,74.1,68.3,30.03,East,90,11.0,17.0,82,0.02,,-RA,0.14,568.00,VWS V14.01,2013-05-20 21:53:00,
2013-05-20 17:58:00,73.6,67.4,30.03,East,89,11.0,18.0,81,0.02,,-RA,0.14,223.00,VWS V14.01,2013-05-20 21:58:00,
2013-05-20 18:03:00,73.4,67.6,30.04,ENE,69,8.0,14.0,82,0.00,,BKN050,0.14,309.00,VWS V14.01,2013-05-20 22:03:00,
2013-05-20 18:08:00,73.9,68.4,30.04,NE,39,12.0,14.0,83,0.00,,BKN050,0.14,538.00,VWS V14.01,2013-05-20 22:08:00,
2013-05-20 18:13:00,74.5,68.3,30.04,NE,45,5.0,14.0,81,0.00,,BKN050,0.14,276.00,VWS V14.01,2013-05-20 22:13:00,
2013-05-20 18:18:00,74.0,68.2,30.03,East,92,6.0,14.0,82,0.00,,BKN050,0.14,135.00,VWS V14.01,2013-05-20 22:18:00,
2013-05-20 18:23:00,73.7,68.2,30.03,ENE,74,4.0,14.0,83,0.00,,BKN050,0.14,125.00,VWS V14.01,2013-05-20 22:23:00,
2013-05-20 18:28:00,73.5,68.0,30.03,ENE,74,3.0,14.0,83,0.00,,BKN050,0.14,97.00,VWS V14.01,2013-05-20 22:28:00,
2013-05-20 18:33:00,73.6,67.8,30.03,NE,42,3.0,6.0,82,0.00,,BKN050,0.14,83.00,VWS V14.01,2013-05-20 22:33:00,
2013-05-20 18:39:00,73.6,67.8,30.02,NE,43,2.0,6.0,82,0.00,,BKN050,0.14,65.00,VWS V14.01,2013-05-20 22:39:00,
2013-05-20 18:44:00,73.8,68.0,30.02,NNE,29,3.0,7.0,82,0.00,,BKN050,0.14,63.00,VWS V14.01,2013-05-20 22:44:00,
2013-05-20 18:49:00,73.9,68.1,30.02,NNE,19,3.0,7.0,82,0.00,,BKN050,0.14,70.00,VWS V14.01,2013-05-20 22:49:00,
2013-05-20 18:54:00,74.0,68.2,30.02,NNE,27,4.0,7.0,82,0.00,,BKN050,0.14,76.00,VWS V14.01,2013-05-20 22:54:00,
2013-05-20 18:59:00,74.0,68.2,30.01,NNE,28,7.0,10.0,82,0.00,,-RA,0.14,81.00,VWS V14.01,2013-05-20 22:59:00,
2013-05-20 19:04:00,73.8,68.3,30.01,NNE,24,8.0,9.0,83,0.00,,-RA,0.14,72.00,VWS V14.01,2013-05-20 23:04:00,
2013-05-20 19:09:00,73.6,67.8,30.01,NNE,33,4.0,9.0,82,0.00,,-RA,0.14,54.00,VWS V14.01,2013-05-20 23:09:00,
2013-05-20 19:14:00,73.4,67.9,30.01,ENE,76,3.0,9.0,83,0.00,,-RA,0.14,56.00,VWS V14.01,2013-05-20 23:14:00,
2013-05-20 19:19:00,73.4,67.9,30.01,NE,51,2.0,9.0,83,0.00,,-RA,0.14,58.00,VWS V14.01,2013-05-20 23:19:00,
2013-05-20 19:24:00,73.6,68.1,30.01,ENE,64,5.0,9.0,83,0.00,,-RA,0.14,58.00,VWS V14.01,2013-05-20 23:24:00,
2013-05-20 19:29:00,73.4,67.9,30.01,ENE,61,4.0,9.0,83,0.00,,-RA,0.14,51.00,VWS V14.01,2013-05-20 23:29:00,
2013-05-20 19:34:00,73.2,68.1,30.01,NNE,13,3.0,3.0,84,0.00,,-RA,0.14,56.00,VWS V14.01,2013-05-20 23:34:00,
2013-05-20 19:39:00,73.2,68.4,30.03,WNW,297,4.0,5.0,85,0.00,,-RA,0.14,65.00,VWS V14.01,2013-05-20 23:39:00,
2013-05-20 19:44:00,73.2,68.4,30.03,NW,325,5.0,7.0,85,0.00,,-RA,0.14,60.00,VWS V14.01,2013-05-20 23:44:00,
2013-05-20 19:49:00,72.9,68.1,30.03,NW,309,2.0,7.0,85,0.00,,-RA,0.14,49.00,VWS V14.01,2013-05-20 23:49:00,
2013-05-20 19:54:00,72.7,68.3,30.04,NW,325,5.0,7.0,86,0.00,,-RA,0.14,30.00,VWS V14.01,2013-05-20 23:54:00,
2013-05-20 19:59:00,72.5,68.4,30.04,NNE,15,1.0,7.0,87,0.00,,,0.14,14.00,VWS V14.01,2013-05-20 23:59:00,
2013-05-20 20:04:00,72.3,68.2,30.04,NNE,13,3.0,3.0,87,0.00,,,0.14,9.00,VWS V14.01,2013-05-21 00:04:00,
2013-05-20 20:09:00,72.2,68.4,30.04,NNE,13,0.0,3.0,88,0.00,,,0.14,5.00,VWS V14.01,2013-05-21 00:09:00,
2013-05-20 20:14:00,72.0,68.3,30.05,NE,40,2.0,4.0,88,0.00,,,0.14,0.00,VWS V14.01,2013-05-21 00:14:00,
2013-05-20 20:19:00,71.9,68.2,30.05,ENE,58,2.0,4.0,88,0.00,,,0.14,0.00,VWS V14.01,2013-05-21 00:19:00,
2013-05-20 20:24:00,71.8,68.4,30.05,ENE,66,2.0,4.0,89,0.00,,,0.14,0.00,VWS V14.01,2013-05-21 00:24:00,
2013-05-20 20:29:00,71.5,68.1,30.06,NE,51,0.0,4.0,89,0.00,,,0.14,0.00,VWS V14.01,2013-05-21 00:29:00,
2013-05-20 20:34:00,71.5,68.1,30.05,NNE,30,2.0,3.0,89,0.00,,,0.14,0.00,VWS V14.01,2013-05-21 00:34:00,
2013-05-20 20:39:00,71.5,68.1,30.05,NE,34,0.0,3.0,89,0.00,,,0.14,0.00,VWS V14.01,2013-05-21 00:39:00,
2013-05-20 20:44:00,71.4,68.3,30.05,NE,34,0.0,3.0,90,0.00,,,0.14,0.00,VWS V14.01,2013-05-21 00:44:00,
2013-05-20 20:49:00,71.5,68.4,30.05,NNE,15,1.0,4.0,90,0.00,,,0.14,0.00,VWS V14.01,2013-05-21 00:49:00,
2013-05-20 20:54:00,71.4,68.3,30.05,NNE,16,2.0,4.0,90,0.00,,,0.14,0.00,VWS V14.01,2013-05-21 00:54:00,
2013-05-20 20:59:00,71.4,68.6,30.06,North,355,3.0,4.0,91,0.00,,,0.14,0.00,VWS V14.01,2013-05-21 00:59:00,
2013-05-20 21:04:00,71.3,68.5,30.06,NNW,337,3.0,4.0,91,0.00,,,0.14,0.00,VWS V14.01,2013-05-21 01:04:00,
2013-05-20 21:09:00,71.2,68.8,30.06,North,355,3.0,4.0,92,0.00,,,0.14,0.00,VWS V14.01,2013-05-21 01:09:00,
2013-05-20 21:14:00,71.1,68.7,30.05,North,350,2.0,4.0,92,0.00,,,0.14,0.00,VWS V14.01,2013-05-21 01:14:00,
2013-05-20 21:19:00,71.0,68.6,30.05,North,11,2.0,4.0,92,0.00,,,0.14,0.00,VWS V14.01,2013-05-21 01:19:00,
2013-05-20 21:24:00,71.0,68.9,30.05,NNE,13,0.0,4.0,93,0.00,,,0.14,0.00,VWS V14.01,2013-05-21 01:24:00,
2013-05-20 21:29:00,71.0,68.9,30.05,NNE,13,1.0,4.0,93,0.00,,,0.14,0.00,VWS V14.01,2013-05-21 01:29:00,
2013-05-20 21:34:00,70.8,68.7,30.04,NNE,24,2.0,2.0,93,0.00,,,0.14,0.00,VWS V14.01,2013-05-21 01:34:00,
2013-05-20 21:39:00,70.8,69.0,30.04,NNE,33,2.0,3.0,94,0.00,,,0.14,0.00,VWS V14.01,2013-05-21 01:39:00,
2013-05-20 21:44:00,70.8,69.0,30.04,NE,36,4.0,4.0,94,0.00,,,0.14,0.00,VWS V14.01,2013-05-21 01:44:00,
2013-05-20 21:49:00,70.7,68.9,30.04,NNE,25,0.0,4.0,94,0.00,,,0.14,0.00,VWS V14.01,2013-05-21 01:49:00,
2013-05-20 21:54:00,70.6,68.8,30.04,NNE,25,0.0,4.0,94,0.00,,,0.14,0.00,VWS V14.01,2013-05-21 01:54:00,
2013-05-20 21:59:00,70.6,68.8,30.04,NNE,25,0.0,4.0,94,0.00,,,0.14,0.00,VWS V14.01,2013-05-21 01:59:00,
2013-05-20 22:04:00,70.5,68.7,30.04,NNE,25,0.0,0.0,94,0.00,,,0.14,0.00,VWS V14.01,2013-05-21 02:04:00,
2013-05-20 22:10:00,70.5,69.0,30.04,NNE,25,0.0,0.0,95,0.00,,,0.14,0.00,VWS V14.01,2013-05-21 02:10:00,
2013-05-20 22:15:00,70.4,68.9,30.04,NNE,25,0.0,0.0,95,0.00,,,0.14,0.00,VWS V14.01,2013-05-21 02:15:00,
2013-05-20 22:20:00,70.5,69.0,30.04,NE,42,0.0,2.0,95,0.00,,,0.14,0.00,VWS V14.01,2013-05-21 02:20:00,
2013-05-20 22:25:00,70.7,69.2,30.05,East,90,0.0,2.0,95,0.00,,,0.14,0.00,VWS V14.01,2013-05-21 02:25:00,
2013-05-20 22:30:00,70.7,69.2,30.05,East,90,0.0,2.0,95,0.00,,,0.14,0.00,VWS V14.01,2013-05-21 02:30:00,
2013-05-20 22:35:00,70.7,69.2,30.05,East,90,0.0,0.0,95,0.00,,,0.14,0.00,VWS V14.01,2013-05-21 02:35:00,
2013-05-20 22:40:00,70.8,69.3,30.04,East,90,1.0,1.0,95,0.00,,,0.14,0.00,VWS V14.01,2013-05-21 02:40:00,
2013-05-20 22:45:00,70.8,69.3,30.05,East,90,0.0,2.0,95,0.00,,,0.14,0.00,VWS V14.01,2013-05-21 02:45:00,
2013-05-20 22:50:00,70.8,69.3,30.05,East,90,0.0,2.0,95,0.00,,,0.14,0.00,VWS V14.01,2013-05-21 02:50:00,
2013-05-20 22:55:00,70.7,69.2,30.04,East,90,0.0,2.0,95,0.00,,,0.14,0.00,VWS V14.01,2013-05-21 02:55:00,
2013-05-20 23:00:00,70.5,69.0,30.04,East,90,0.0,2.0,95,0.00,,,0.14,0.00,VWS V14.01,2013-05-21 03:00:00,
2013-05-20 23:05:00,70.6,69.1,30.04,East,90,0.0,1.0,95,0.00,,,0.14,0.00,VWS V14.01,2013-05-21 03:05:00,
2013-05-20 23:10:00,70.5,69.0,30.04,East,90,2.0,2.0,95,0.00,,,0.14,0.00,VWS V14.01,2013-05-21 03:10:00,
2013-05-20 23:15:00,70.4,68.9,30.03,East,90,1.0,3.0,95,0.00,,,0.14,0.00,VWS V14.01,2013-05-21 03:15:00,
2013-05-20 23:20:00,70.3,68.8,30.03,East,90,1.0,3.0,95,0.00,,,0.14,0.00,VWS V14.01,2013-05-21 03:20:00,
2013-05-20 23:25:00,70.2,68.7,30.03,East,90,0.0,3.0,95,0.00,,,0.14,0.00,VWS V14.01,2013-05-21 03:25:00,
2013-05-20 23:30:00,70.0,68.5,30.03,East,90,2.0,3.0,95,0.00,,,0.14,0.00,VWS V14.01,2013-05-21 03:30:00,
2013-05-20 23:35:00,69.9,68.4,30.03,East,90,1.0,3.0,95,0.00,,,0.14,0.00,VWS V14.01,2013-05-21 03:35:00,
2013-05-20 23:40:00,69.8,68.6,30.03,North,355,2.0,3.0,96,0.01,,,0.15,0.00,VWS V14.01,2013-05-21 03:40:00,
2013-05-20 23:45:00,69.6,68.4,30.03,North,355,1.0,3.0,96,0.01,,,0.15,0.00,VWS V14.01,2013-05-21 03:45:00,
2013-05-20 23:50:00,69.7,68.5,30.03,North,355,1.0,3.0,96,0.01,,,0.15,0.00,VWS V14.01,2013-05-21 03:50:00,
2013-05-20 23:55:00,69.6,68.4,30.03,North,5,0.0,3.0,96,0.01,,,0.15,0.00,VWS V14.01,2013-05-21 03:55:00,